#timestamp,LO_Frequency,Hit,StdDev 
1671678015.3,286047000.7,P
1671678035.2,286047000.8,N
1671678055.0,286047000.7,N
1671678055.9,286047000.7,N
1671678075.7,286047001.2,Y
1671678095.6,286046999.1,P
1671678115.4,286046997.1,P
1671678135.3,286046999.1,N
1671678155.1,286047000.7,N
1671678156.0,286047000.7,N
1671678175.8,286047001.2,N
1671678195.7,286046998.7,N
1671678215.5,286046999.6,N
1671678235.4,286046998.5,N
1671678255.2,286046998.5,N
1671678275.0,286046999.3,N
1671678275.9,286046999.3,N
1671678295.8,286046998.4,N
1671678315.6,286046998.7,N
1671678335.4,286047001.2,N
1671678355.3,286046998.2,N
1671678375.1,286046998.3,N
1671678395.9,286046998.4,N
1671678415.7,286046996.6,Y
1671678435.5,286046996.5,P
1671678455.4,286047001.2,N
1671678475.2,286046998.1,N
1671678495.0,286046999.4,N
1671678496.0,286046999.4,N
1671678515.8,286046997.0,N
1671678535.6,286046996.7,N
1671678555.5,286046996.9,N
1671678575.3,286046999.2,N
1671678595.1,286046999.4,N
1671678615.9,286046998.2,N
1671678635.7,286046998.3,N
1671678655.6,286046998.3,N
1671678675.4,286047001.2,N
1671678695.2,286046998.6,N
1671678715.1,286046999.0,N
1671678716.0,286046999.0,N
1671678735.8,286046998.4,N
1671678755.7,286046998.6,N
1671678775.5,286046998.4,N
1671678795.3,286046999.4,N
1671678815.2,286046999.3,N
1671678835.0,286046997.4,N
1671678835.9,286046997.4,N
1671678855.7,286046998.6,N
1671678875.6,286046998.2,N
1671678895.4,286047002.2,N
1671678915.3,286047000.1,N
1671678935.1,286047000.6,N
1671678936.0,286047000.6,N
1671678955.8,286047000.5,N
1671678975.7,286047001.1,N
1671678995.5,286047001.8,N
1671679015.3,286047001.9,N
1671679035.2,286047000.2,N
1671679055.0,286047000.3,N
1671679055.9,286047000.3,N
1671679075.8,286046999.9,N
1671679095.6,286047002.3,N
1671679115.4,286047002.7,N
1671679135.3,286046998.7,N
1671679155.1,286047002.0,N
1671679175.9,286047001.3,N
1671679195.7,286047002.5,N
1671679215.5,286047002.6,N
1671679235.4,286047003.6,N
1671679255.2,286047002.3,N
1671679275.0,286047000.6,N
1671679275.9,286047000.6,N
1671679295.8,286047001.2,N
1671679315.6,286047000.0,N
1671679335.5,286047000.6,N
1671679355.3,286047001.0,N
1671679375.1,286047001.0,N
1671679395.9,286047000.1,N
1671679415.7,286046999.9,N
1671679435.5,286046999.8,N
1671679455.4,286047000.3,N
1671679475.2,286047000.8,N
1671679495.1,286046998.1,N
1671679496.0,286046998.1,N
1671679515.8,286047000.0,N
1671679535.6,286046999.7,N
1671679555.5,286047002.2,N
1671679575.3,286047001.3,N
1671679595.1,286047000.2,N
1671679615.9,286046997.0,N
1671679635.7,286046998.3,N
1671679655.6,286047000.5,N
1671679675.4,286047000.1,N
1671679695.2,286046996.8,N
1671679715.1,286046993.7,Y
1671679716.0,286046993.7,P
1671679735.8,286046995.3,N
1671679755.7,286046997.4,N
1671679775.5,286046997.1,N
1671679795.3,286046998.3,N
1671679815.2,286047000.7,N
1671679835.0,286047000.9,N
1671679835.9,286047000.9,N
1671679855.7,286047002.6,N
1671679875.6,286047000.9,N
1671679895.4,286047001.0,N
1671679915.3,286046998.4,N
1671679935.1,286047001.0,N
1671679936.0,286047001.0,N
1671679955.8,286047000.5,N
1671679975.7,286047000.3,N
1671679995.5,286047002.6,N
1671680015.4,286046999.7,N
1671680035.2,286046998.2,N
1671680055.0,286046998.9,N
1671680055.9,286046998.9,N
1671680075.8,286046999.1,N
1671680095.6,286046999.4,N
1671680115.4,286046998.9,N
1671680135.3,286046998.5,N
1671680155.1,286047001.0,N
1671680175.9,286047002.5,N
1671680195.7,286047002.4,N
1671680215.5,286047000.7,N
1671680235.4,286047000.7,N
1671680255.2,286047000.7,N
1671680275.0,286047000.9,N
1671680276.0,286047000.9,N
1671680295.8,286047000.5,N
1671680315.6,286047002.6,N
1671680335.5,286047003.8,N
1671680355.3,286047004.1,N
1671680375.1,286047003.7,N
1671680395.9,286047001.4,N
1671680415.7,286047003.8,N
1671680435.6,286047004.4,N
1671680455.4,286047000.1,N
1671680475.2,286046998.8,N
1671680495.1,286046998.7,N
1671680496.0,286046998.7,N
1671680515.8,286046999.1,N
1671680535.6,286047001.2,N
1671680555.5,286047000.9,N
1671680575.3,286046999.7,N
1671680595.2,286047004.2,N
1671680615.9,286047001.8,N
1671680635.7,286047002.1,N
1671680655.6,286047000.1,N
1671680675.4,286046999.8,N
1671680695.2,286047000.1,N
1671680715.1,286047001.1,N
1671680716.0,286047001.1,N
1671680735.8,286046998.8,N
1671680755.7,286046999.4,N
1671680775.5,286047000.5,N
1671680795.3,286047002.5,N
1671680815.2,286046999.9,N
1671680835.0,286046998.1,N
1671680835.9,286046998.1,N
1671680855.7,286046998.9,N
1671680875.6,286046999.3,N
1671680895.4,286046999.5,N
1671680915.3,286046999.6,N
1671680935.1,286046998.1,N
1671680936.0,286046998.1,N
1671680955.8,286047000.9,N
1671680975.7,286046998.6,N
1671680995.5,286046999.1,N
1671681015.3,286047000.0,N
1671681035.2,286047002.5,N
1671681055.0,286047002.0,N
1671681055.9,286047002.0,N
1671681075.8,286046998.5,N
1671681095.6,286046998.2,N
1671681115.4,286047002.0,N
1671681135.3,286046999.8,N
1671681155.1,286046999.3,N
1671681175.8,286046998.4,N
1671681195.7,286047000.8,N
1671681215.5,286046999.7,N
1671681235.4,286047002.7,N
1671681255.2,286046999.7,N
1671681275.0,286047000.5,N
1671681275.9,286047000.5,N
1671681295.8,286047002.2,N
1671681315.6,286047003.0,N
1671681335.4,286047004.0,N
1671681355.3,286047002.3,N
1671681375.1,286047000.3,N
1671681395.9,286047002.6,N
1671681415.7,286047000.3,N
1671681435.5,286047001.2,N
1671681455.4,286046998.1,N
1671681475.2,286046998.2,N
1671681495.0,286047000.7,N
1671681496.0,286047000.7,N
1671681515.8,286047001.1,N
1671681535.6,286047000.9,N
1671681555.5,286047002.3,N
1671681575.3,286047000.3,N
1671681595.1,286047001.2,N
